AFR42VQ LFPG-LFMN

Flight info

Callsign AFR42VQ
Flight time 1h 14m
Altitude 36000
Route LATRA DCT LAMUT DCT UTUVA DCT LERGA DCT LIQID UY30 LATAM UY22 NISAR
Aircraft A320/M-SDE2E3FGIJ1RWY/HB1

Departure

Time 2026-05-01 10:52
Airport Charles de Gaulle International Airport (LFPG)

Arrival

Time 2026-05-01 12:06
Airport Nice-Côte d'Azur Airport (LFMN)
Time Latitude Longitude Altitude Speed Heading
2026-05-01 10:28 49.00740 2.57845 363 ft 0 kts 169°
2026-05-01 10:43 49.00746 2.57844 354 ft 2 kts 168°
2026-05-01 10:43 49.00763 2.57840 364 ft 2 kts 180°
2026-05-01 10:43 49.00779 2.57842 364 ft 2 kts 223°
2026-05-01 10:43 49.00785 2.57860 364 ft 1 kts 266°
2026-05-01 10:44 49.00786 2.57863 364 ft 0 kts 269°
2026-05-01 10:45 49.00784 2.57829 361 ft 11 kts 266°
2026-05-01 10:45 49.00837 2.57732 360 ft 12 kts 333°
2026-05-01 10:45 49.00881 2.57649 354 ft 11 kts 278°
2026-05-01 10:46 49.00873 2.57462 356 ft 20 kts 265°
2026-05-01 10:46 49.00861 2.57251 354 ft 20 kts 264°
2026-05-01 10:46 49.00848 2.57041 354 ft 20 kts 267°
2026-05-01 10:46 49.00836 2.56838 359 ft 19 kts 266°
2026-05-01 10:47 49.00826 2.56612 354 ft 24 kts 266°
2026-05-01 10:47 49.00809 2.56358 356 ft 25 kts 260°
2026-05-01 10:47 49.00784 2.56107 357 ft 22 kts 262°
2026-05-01 10:47 49.00761 2.55872 354 ft 23 kts 262°
2026-05-01 10:48 49.00740 2.55624 357 ft 24 kts 263°
2026-05-01 10:48 49.00720 2.55370 358 ft 21 kts 260°
2026-05-01 10:48 49.00621 2.55256 361 ft 16 kts 163°
2026-05-01 10:48 49.00516 2.55299 357 ft 16 kts 164°
2026-05-01 10:49 49.00407 2.55346 354 ft 15 kts 163°
2026-05-01 10:49 49.00303 2.55393 361 ft 16 kts 163°
2026-05-01 10:49 49.00214 2.55431 360 ft 12 kts 164°
2026-05-01 10:49 49.00125 2.55470 359 ft 14 kts 164°
2026-05-01 10:50 49.00025 2.55514 359 ft 16 kts 164°
2026-05-01 10:50 48.99918 2.55570 361 ft 17 kts 150°
2026-05-01 10:50 48.99841 2.55728 358 ft 20 kts 107°
2026-05-01 10:50 48.99744 2.55808 356 ft 17 kts 175°
2026-05-01 10:51 48.99624 2.55826 354 ft 18 kts 174°
2026-05-01 10:51 48.99606 2.55881 353 ft 3 kts 82°
2026-05-01 10:51 48.99611 2.55941 353 ft 21 kts 83°
2026-05-01 10:51 48.99640 2.56558 361 ft 92 kts 85°
2026-05-01 10:52 48.99707 2.57817 357 ft 144 kts 85°
2026-05-01 10:52 48.99785 2.59523 545 ft 173 kts 88°
2026-05-01 10:52 48.99870 2.61391 1155 ft 179 kts 87°
2026-05-01 10:52 48.99968 2.63289 1832 ft 180 kts 87°
2026-05-01 10:53 49.00073 2.65184 2582 ft 179 kts 86°
2026-05-01 10:53 49.00178 2.67075 3365 ft 179 kts 87°
2026-05-01 10:53 49.00284 2.69020 3882 ft 193 kts 87°
2026-05-01 10:53 49.00399 2.71174 4182 ft 215 kts 87°
2026-05-01 10:54 49.00523 2.73590 4511 ft 241 kts 87°
2026-05-01 10:54 49.00661 2.76263 4956 ft 264 kts 87°
2026-05-01 10:54 49.00620 2.79096 5681 ft 271 kts 101°
2026-05-01 10:54 49.00318 2.81947 6569 ft 274 kts 102°
2026-05-01 10:55 49.00011 2.84831 7424 ft 277 kts 101°
2026-05-01 10:55 48.99701 2.87741 8269 ft 280 kts 101°
2026-05-01 10:55 48.99393 2.90636 9122 ft 282 kts 101°
2026-05-01 10:55 48.99074 2.93636 10009 ft 284 kts 101°
2026-05-01 10:56 48.98725 2.96613 10488 ft 300 kts 106°
2026-05-01 10:56 48.97804 2.99541 10833 ft 315 kts 128°
2026-05-01 10:56 48.96187 3.01810 11507 ft 320 kts 148°
2026-05-01 10:56 48.94125 3.03065 12268 ft 323 kts 168°
2026-05-01 10:57 48.91879 3.03088 13040 ft 328 kts 189°
2026-05-01 10:57 48.89754 3.01784 13796 ft 336 kts 211°
2026-05-01 10:57 48.88077 2.99264 14462 ft 346 kts 232°
2026-05-01 10:57 48.86806 2.96135 15093 ft 350 kts 236°
2026-05-01 10:58 48.85553 2.92949 15737 ft 353 kts 236°
2026-05-01 10:58 48.84296 2.89733 16372 ft 355 kts 236°
2026-05-01 10:58 48.83029 2.86496 17015 ft 358 kts 235°
2026-05-01 10:58 48.81744 2.83241 17630 ft 361 kts 235°
2026-05-01 10:59 48.81527 2.82694 17741 ft 361 kts 235°
2026-05-01 10:59 48.81092 2.81595 17961 ft 362 kts 235°
2026-05-01 10:59 48.79785 2.78310 18562 ft 365 kts 235°
2026-05-01 10:59 48.78460 2.74998 19087 ft 368 kts 234°
2026-05-01 11:00 48.77127 2.71666 19607 ft 371 kts 234°
2026-05-01 11:00 48.75779 2.68304 20125 ft 374 kts 234°
2026-05-01 11:00 48.74423 2.64922 20637 ft 377 kts 234°
2026-05-01 11:00 48.72992 2.61580 21138 ft 377 kts 228°
2026-05-01 11:01 48.71204 2.58674 21639 ft 375 kts 216°
2026-05-01 11:01 48.69111 2.56381 22109 ft 373 kts 206°
2026-05-01 11:01 48.67220 2.54698 22518 ft 375 kts 206°
2026-05-01 11:01 48.65787 2.53422 22815 ft 377 kts 206°
2026-05-01 11:02 48.63520 2.51400 23276 ft 380 kts 206°
2026-05-01 11:02 48.61231 2.49356 23751 ft 383 kts 206°
2026-05-01 11:02 48.58926 2.47300 24142 ft 386 kts 206°
2026-05-01 11:02 48.56605 2.45233 24533 ft 389 kts 206°
2026-05-01 11:03 48.54267 2.43158 24933 ft 391 kts 206°
2026-05-01 11:03 48.51864 2.41265 25315 ft 389 kts 198°
2026-05-01 11:03 48.49297 2.40043 25683 ft 386 kts 188°
2026-05-01 11:03 48.46642 2.39556 26062 ft 384 kts 178°
2026-05-01 11:04 48.44014 2.39694 26437 ft 384 kts 174°
2026-05-01 11:04 48.41336 2.39913 26823 ft 386 kts 174°
2026-05-01 11:04 48.38653 2.40125 27238 ft 387 kts 174°
2026-05-01 11:04 48.35960 2.40335 27621 ft 388 kts 174°
2026-05-01 11:05 48.33253 2.40544 27998 ft 390 kts 174°
2026-05-01 11:05 48.30538 2.40760 28360 ft 391 kts 172°
2026-05-01 11:05 48.27861 2.41406 28711 ft 390 kts 163°
2026-05-01 11:05 48.25280 2.42671 29062 ft 391 kts 159°
2026-05-01 11:06 48.22717 2.44042 29416 ft 392 kts 159°
2026-05-01 11:06 48.20136 2.45415 29759 ft 394 kts 159°
2026-05-01 11:06 48.17547 2.46786 30140 ft 395 kts 159°
2026-05-01 11:07 48.12346 2.49540 30742 ft 398 kts 159°
2026-05-01 11:07 48.09731 2.50930 31006 ft 400 kts 159°
2026-05-01 11:07 48.07099 2.52316 31230 ft 403 kts 159°
2026-05-01 11:07 48.04430 2.53666 31355 ft 408 kts 160°
2026-05-01 11:08 48.01720 2.54997 31476 ft 412 kts 160°
2026-05-01 11:08 47.98987 2.56319 31685 ft 414 kts 160°
2026-05-01 11:08 47.93508 2.58971 32302 ft 414 kts 160°
2026-05-01 11:09 47.90773 2.60307 32616 ft 413 kts 160°
2026-05-01 11:09 47.88041 2.61647 32927 ft 413 kts 160°
2026-05-01 11:09 47.85317 2.62986 33249 ft 412 kts 160°
2026-05-01 11:10 47.79866 2.65656 33861 ft 412 kts 160°
2026-05-01 11:10 47.77146 2.66985 34173 ft 412 kts 160°
2026-05-01 11:10 47.74451 2.68304 34342 ft 415 kts 160°
2026-05-01 11:10 47.71700 2.69648 34491 ft 418 kts 161°
2026-05-01 11:11 47.68934 2.70996 34695 ft 419 kts 161°
2026-05-01 11:11 47.66159 2.72341 34923 ft 419 kts 161°
2026-05-01 11:11 47.63387 2.73684 35137 ft 420 kts 161°
2026-05-01 11:11 47.60605 2.75036 35350 ft 421 kts 161°
2026-05-01 11:12 47.57822 2.76390 35552 ft 421 kts 161°
2026-05-01 11:12 47.55033 2.77745 35756 ft 422 kts 162°
2026-05-01 11:12 47.52231 2.79101 35870 ft 425 kts 162°
2026-05-01 11:12 47.49415 2.80459 36036 ft 426 kts 162°
2026-05-01 11:13 47.46597 2.81819 36206 ft 427 kts 162°
2026-05-01 11:13 47.43761 2.83186 36249 ft 431 kts 162°
2026-05-01 11:13 47.38004 2.85947 36256 ft 438 kts 162°
2026-05-01 11:14 47.32199 2.88732 36263 ft 441 kts 162°
2026-05-01 11:14 47.26354 2.91537 36260 ft 441 kts 162°
2026-05-01 11:15 47.20520 2.94334 36258 ft 441 kts 162°
2026-05-01 11:15 47.14682 2.97123 36261 ft 441 kts 162°
2026-05-01 11:16 47.08833 2.99838 36264 ft 441 kts 165°
2026-05-01 11:16 47.02913 3.02264 36266 ft 442 kts 166°
2026-05-01 11:17 46.96971 3.04602 36266 ft 442 kts 166°
2026-05-01 11:17 46.91036 3.07001 36243 ft 443 kts 166°
2026-05-01 11:18 46.85081 3.09457 36247 ft 445 kts 166°
2026-05-01 11:18 46.79118 3.11908 36252 ft 446 kts 166°
2026-05-01 11:19 46.73136 3.14350 36249 ft 447 kts 166°
2026-05-01 11:19 46.67137 3.16787 36250 ft 448 kts 166°
2026-05-01 11:20 46.61138 3.19221 36251 ft 448 kts 166°
2026-05-01 11:20 46.55175 3.21634 36252 ft 447 kts 166°
2026-05-01 11:21 46.49175 3.24052 36235 ft 448 kts 167°
2026-05-01 11:21 46.43167 3.26476 36239 ft 449 kts 167°
2026-05-01 11:22 46.37141 3.28895 36251 ft 450 kts 167°
2026-05-01 11:22 46.31110 3.31309 36251 ft 450 kts 168°
2026-05-01 11:23 46.26089 3.33326 36255 ft 451 kts 168°
2026-05-01 11:23 46.20036 3.35745 36259 ft 452 kts 168°
2026-05-01 11:24 46.13974 3.38153 36266 ft 452 kts 168°
2026-05-01 11:25 46.04864 3.41779 36255 ft 453 kts 168°
2026-05-01 11:25 45.95736 3.45397 36252 ft 454 kts 168°
2026-05-01 11:26 45.86591 3.49000 36237 ft 455 kts 168°
2026-05-01 11:27 45.80506 3.51527 36237 ft 455 kts 166°
2026-05-01 11:27 45.74445 3.54187 36241 ft 456 kts 166°
2026-05-01 11:28 45.68374 3.56847 36238 ft 457 kts 166°
2026-05-01 11:28 45.62289 3.59468 36244 ft 457 kts 166°
2026-05-01 11:29 45.53142 3.63358 36256 ft 458 kts 166°
2026-05-01 11:30 45.43996 3.67259 36260 ft 457 kts 166°
2026-05-01 11:30 45.37901 3.69860 36263 ft 457 kts 166°
2026-05-01 11:31 45.31848 3.72451 36255 ft 458 kts 163°
2026-05-01 11:31 45.26219 3.76735 36283 ft 464 kts 143°
2026-05-01 11:32 45.21852 3.83522 36063 ft 471 kts 124°
2026-05-01 11:32 45.20086 3.87430 35804 ft 472 kts 124°
2026-05-01 11:32 45.18310 3.91347 35562 ft 472 kts 124°
2026-05-01 11:32 45.16524 3.95264 35330 ft 473 kts 125°
2026-05-01 11:33 45.14735 3.99177 35269 ft 473 kts 125°
2026-05-01 11:33 45.11152 4.07001 35283 ft 474 kts 125°
2026-05-01 11:34 45.07565 4.14822 35284 ft 473 kts 125°
2026-05-01 11:34 45.03968 4.22614 35275 ft 473 kts 127°
2026-05-01 11:35 44.99672 4.29613 35279 ft 472 kts 135°
2026-05-01 11:35 44.95237 4.36439 35284 ft 472 kts 134°
2026-05-01 11:36 44.90798 4.43265 35283 ft 472 kts 134°
2026-05-01 11:36 44.86358 4.50069 35287 ft 471 kts 134°
2026-05-01 11:37 44.81915 4.56857 35274 ft 471 kts 135°
2026-05-01 11:37 44.77458 4.63648 35290 ft 473 kts 135°
2026-05-01 11:38 44.72988 4.70432 35281 ft 473 kts 135°
2026-05-01 11:38 44.68510 4.77223 35271 ft 473 kts 135°
2026-05-01 11:39 44.64063 4.83954 35286 ft 473 kts 135°
2026-05-01 11:39 44.61841 4.87363 35129 ft 474 kts 134°
2026-05-01 11:39 44.59651 4.90822 34890 ft 474 kts 133°
2026-05-01 11:39 44.57489 4.94310 34652 ft 474 kts 133°
2026-05-01 11:40 44.55332 4.97814 34405 ft 475 kts 132°
2026-05-01 11:40 44.53167 5.01323 34154 ft 476 kts 133°
2026-05-01 11:40 44.50990 5.04823 33886 ft 477 kts 133°
2026-05-01 11:40 44.48801 5.08314 33612 ft 477 kts 133°
2026-05-01 11:41 44.46603 5.11805 33341 ft 478 kts 133°
2026-05-01 11:41 44.44406 5.15288 33080 ft 478 kts 133°
2026-05-01 11:41 44.42203 5.18773 32817 ft 479 kts 133°
2026-05-01 11:41 44.39996 5.22259 32549 ft 479 kts 133°
2026-05-01 11:42 44.37756 5.25710 32352 ft 479 kts 136°
2026-05-01 11:42 44.35271 5.28801 31863 ft 478 kts 143°
2026-05-01 11:42 44.32753 5.31830 31539 ft 479 kts 138°
2026-05-01 11:42 44.30346 5.35049 31299 ft 480 kts 136°
2026-05-01 11:43 44.27966 5.38327 31043 ft 481 kts 136°
2026-05-01 11:43 44.25600 5.41646 30798 ft 482 kts 135°
2026-05-01 11:43 44.23269 5.44928 30560 ft 483 kts 135°
2026-05-01 11:44 44.18508 5.51548 30016 ft 484 kts 136°
2026-05-01 11:44 44.16110 5.54832 29746 ft 483 kts 136°
2026-05-01 11:44 44.13710 5.58106 29471 ft 483 kts 136°
2026-05-01 11:44 44.11310 5.61381 29190 ft 483 kts 136°
2026-05-01 11:45 44.08916 5.64648 28913 ft 482 kts 136°
2026-05-01 11:45 44.06519 5.67918 28641 ft 482 kts 136°
2026-05-01 11:45 44.04124 5.71181 28122 ft 481 kts 136°
2026-05-01 11:45 44.01720 5.74451 26811 ft 486 kts 135°
2026-05-01 11:46 43.99299 5.77751 25664 ft 488 kts 135°
2026-05-01 11:46 43.96898 5.81018 24413 ft 478 kts 135°
2026-05-01 11:46 43.94538 5.84219 23121 ft 474 kts 135°
2026-05-01 11:46 43.92201 5.87384 22460 ft 464 kts 135°
2026-05-01 11:47 43.89908 5.90485 21639 ft 458 kts 135°
2026-05-01 11:47 43.87642 5.93545 20836 ft 452 kts 135°
2026-05-01 11:47 43.85406 5.96562 20070 ft 445 kts 135°
2026-05-01 11:47 43.83220 5.99510 18908 ft 433 kts 135°
2026-05-01 11:48 43.81106 6.02361 18099 ft 414 kts 135°
2026-05-01 11:48 43.79089 6.05079 17413 ft 396 kts 135°
2026-05-01 11:48 43.77114 6.07739 16736 ft 397 kts 135°
2026-05-01 11:48 43.75141 6.10397 16084 ft 395 kts 135°
2026-05-01 11:49 43.73174 6.13042 15437 ft 393 kts 135°
2026-05-01 11:49 43.71219 6.15664 14816 ft 390 kts 135°
2026-05-01 11:49 43.69278 6.18266 14209 ft 388 kts 135°
2026-05-01 11:49 43.67344 6.20849 13640 ft 384 kts 135°
2026-05-01 11:50 43.65463 6.23358 13485 ft 368 kts 135°
2026-05-01 11:50 43.63660 6.25766 13367 ft 353 kts 135°
2026-05-01 11:50 43.61929 6.28077 13239 ft 340 kts 135°
2026-05-01 11:50 43.60260 6.30304 13099 ft 328 kts 135°
2026-05-01 11:51 43.58649 6.32451 12988 ft 317 kts 135°
2026-05-01 11:51 43.57087 6.34527 12865 ft 306 kts 135°
2026-05-01 11:51 43.55589 6.36516 12644 ft 300 kts 135°
2026-05-01 11:51 43.54098 6.38495 12575 ft 296 kts 135°
2026-05-01 11:52 43.52618 6.40466 12505 ft 296 kts 135°
2026-05-01 11:52 43.51137 6.42435 12391 ft 296 kts 135°
2026-05-01 11:52 43.49662 6.44414 12211 ft 297 kts 134°
2026-05-01 11:52 43.48224 6.46448 11910 ft 295 kts 132°
2026-05-01 11:53 43.46816 6.48504 11636 ft 296 kts 131°
2026-05-01 11:53 43.45409 6.50573 11361 ft 296 kts 130°
2026-05-01 11:53 43.44000 6.52629 11090 ft 295 kts 131°
2026-05-01 11:53 43.42584 6.54682 10810 ft 296 kts 130°
2026-05-01 11:54 43.41169 6.56734 10536 ft 295 kts 131°
2026-05-01 11:54 43.39792 6.58820 10262 ft 293 kts 123°
2026-05-01 11:54 43.38804 6.61230 9967 ft 287 kts 107°
2026-05-01 11:54 43.38328 6.63864 9700 ft 282 kts 92°
2026-05-01 11:55 43.38218 6.66550 9508 ft 282 kts 89°
2026-05-01 11:55 43.38112 6.69232 9315 ft 280 kts 90°
2026-05-01 11:55 43.38000 6.71903 9056 ft 281 kts 91°
2026-05-01 11:55 43.37887 6.74585 8686 ft 279 kts 91°
2026-05-01 11:56 43.37776 6.77233 8578 ft 277 kts 90°
2026-05-01 11:56 43.37664 6.79866 8455 ft 275 kts 91°
2026-05-01 11:56 43.37552 6.82477 8329 ft 274 kts 91°
2026-05-01 11:56 43.37438 6.85093 8204 ft 274 kts 91°
2026-05-01 11:57 43.37325 6.87702 8077 ft 272 kts 92°
2026-05-01 11:57 43.37212 6.90295 7956 ft 271 kts 90°
2026-05-01 11:57 43.37099 6.92872 7829 ft 271 kts 90°
2026-05-01 11:57 43.36986 6.95451 7704 ft 271 kts 91°
2026-05-01 11:58 43.36870 6.98032 7581 ft 270 kts 91°
2026-05-01 11:58 43.36755 7.00598 7458 ft 268 kts 90°
2026-05-01 11:58 43.36534 7.05664 7215 ft 269 kts 92°
2026-05-01 11:59 43.36492 7.08247 6858 ft 267 kts 82°
2026-05-01 11:59 43.37089 7.10673 6132 ft 272 kts 58°
2026-05-01 11:59 43.38361 7.12507 5414 ft 269 kts 34°
2026-05-01 12:00 43.41796 7.14306 4270 ft 253 kts 20°
2026-05-01 12:00 43.43391 7.15026 4125 ft 230 kts 21°
2026-05-01 12:00 43.46201 7.16219 3945 ft 195 kts 11°
2026-05-01 12:01 43.47510 7.16212 3736 ft 184 kts
2026-05-01 12:01 43.48764 7.16090 3452 ft 176 kts
2026-05-01 12:01 43.49950 7.15972 3244 ft 163 kts
2026-05-01 12:01 43.51027 7.15863 3003 ft 148 kts
2026-05-01 12:02 43.52017 7.15763 2806 ft 138 kts
2026-05-01 12:02 43.52964 7.15672 2620 ft 136 kts
2026-05-01 12:02 43.53914 7.15585 2436 ft 138 kts
2026-05-01 12:02 43.54880 7.15498 2247 ft 140 kts
2026-05-01 12:03 43.55853 7.15403 2071 ft 140 kts
2026-05-01 12:03 43.56820 7.15291 1891 ft 139 kts
2026-05-01 12:03 43.57786 7.15149 1707 ft 140 kts
2026-05-01 12:03 43.58767 7.14976 1523 ft 142 kts
2026-05-01 12:04 43.59742 7.14774 1364 ft 141 kts
2026-05-01 12:04 43.60707 7.14765 1177 ft 137 kts 15°
2026-05-01 12:04 43.61595 7.15188 964 ft 135 kts 39°
2026-05-01 12:04 43.62262 7.16062 844 ft 132 kts 54°
2026-05-01 12:05 43.62837 7.17063 737 ft 134 kts 54°
2026-05-01 12:05 43.64108 7.18910 373 ft 134 kts 49°
2026-05-01 12:05 43.64773 7.19827 212 ft 135 kts 49°
2026-05-01 12:06 43.65424 7.20745 28 ft 131 kts 49°
2026-05-01 12:06 43.65981 7.21506 20 ft 91 kts 45°
2026-05-01 12:06 43.66302 7.21936 25 ft 44 kts 35°
2026-05-01 12:06 43.66511 7.22052 21 ft 19 kts 357°
2026-05-01 12:07 43.66538 7.21952 22 ft 12 kts 236°
2026-05-01 12:07 43.66483 7.21871 21 ft 12 kts 223°
2026-05-01 12:07 43.66427 7.21796 21 ft 11 kts 225°
2026-05-01 12:07 43.66369 7.21715 21 ft 13 kts 225°
2026-05-01 12:08 43.66310 7.21634 21 ft 11 kts 225°
2026-05-01 12:08 43.66256 7.21561 21 ft 10 kts 225°
2026-05-01 12:08 43.66208 7.21494 21 ft 9 kts 225°
2026-05-01 12:08 43.66147 7.21411 21 ft 13 kts 225°
2026-05-01 12:09 43.66086 7.21328 22 ft 12 kts 225°
2026-05-01 12:09 43.66030 7.21251 21 ft 11 kts 225°
2026-05-01 12:09 43.65997 7.21207 21 ft 3 kts 224°
2026-05-01 12:09 43.65989 7.21196 21 ft 1 kts 224°
2026-05-01 12:10 43.65975 7.21176 21 ft 8 kts 225°
2026-05-01 12:10 43.65853 7.21007 21 ft 15 kts 225°
2026-05-01 12:10 43.65792 7.20895 21 ft 11 kts 283°
2026-05-01 12:11 43.65862 7.20779 21 ft 8 kts 242°
2026-05-01 12:11 43.65827 7.20725 21 ft 8 kts 225°
2026-05-01 12:11 43.65791 7.20675 21 ft 7 kts 224°
2026-05-01 12:12 43.65751 7.20622 21 ft 8 kts 225°
2026-05-01 12:12 43.65713 7.20570 21 ft 9 kts 225°
2026-05-01 12:12 43.65689 7.20494 21 ft 9 kts 295°
2026-05-01 12:12 43.65720 7.20449 21 ft 6 kts 315°
2026-05-01 12:13 43.65740 7.20422 21 ft 0 kts 315°